Stevenson, Washington, United States (98648)
Lat: 45.70N, Lon: 121.88W
Wx Zone: WAZ023
Local Info
Past Weather Observations for Today

NOTE: This archive is for the closest National Weather Service station to Stevenson. Information may differ from the station used for current weather conditions.

Click here for Long-term Archive

Time Weather Temperature Dewpoint Humidity Pressure Winds Precip Visibility
19:53
Clear
70°F / 21°C 54°F / 12°C 57% 30.15 in
(1021 mb)
SSW 3.5 mph
(SSW 6 kph)
- 10SM
18:53
Clear
72°F / 22°C 54°F / 12°C 53% 30.15 in
(1021 mb)
NW 6.9 mph
(NW 11 kph)
- 10SM
17:53
Clear
73°F / 23°C 54°F / 12°C 50% 30.15 in
(1021 mb)
Variable 5.8 mph
(Variable 9 kph)
- 10SM
16:53
Clear
75°F / 24°C 54°F / 12°C 47% 30.18 in
(1022 mb)
N 5.8 mph
(N 9 kph)
- 10SM
15:53
Clear
75°F / 24°C 52°F / 11°C 44% 30.18 in
(1022 mb)
NW 9.2 mph
(NW 15 kph)
- 10SM
14:53
Clear
75°F / 24°C 54°F / 12°C 47% 30.21 in
(1023 mb)
Calm - 10SM
13:53
Clear
73°F / 23°C 52°F / 11°C 47% 30.21 in
(1023 mb)
Variable 4.6 mph
(Variable 7 kph)
- 10SM
12:53
Mostly Cloudy
72°F / 22°C 52°F / 11°C 50% 30.24 in
(1024 mb)
Variable 4.6 mph
(Variable 7 kph)
- 10SM
11:53
Overcast
68°F / 20°C 52°F / 11°C 56% 30.24 in
(1024 mb)
Variable 3.5 mph
(Variable 6 kph)
- 10SM
10:53
Overcast
70°F / 21°C 54°F / 12°C 57% 30.27 in
(1025 mb)
Variable 5.8 mph
(Variable 9 kph)
- 10SM
09:53
Overcast
66°F / 19°C 52°F / 11°C 60% 30.27 in
(1025 mb)
SSW 3.5 mph
(SSW 6 kph)
- 10SM
08:53
Overcast
64°F / 18°C 55°F / 13°C 73% 30.27 in
(1025 mb)
Calm - 10SM
07:53
Overcast
63°F / 17°C 55°F / 13°C 77% 30.27 in
(1025 mb)
Calm - 10SM
07:13
Overcast
63°F / 17°C 55°F / 13°C 77% 30.27 in
(1025 mb)
Calm - 10SM
07:04
Overcast
63°F / 17°C 55°F / 13°C 77% 30.27 in
(1025 mb)
Calm - 10SM
06:53
Overcast
61°F / 16°C 55°F / 13°C 83% 30.27 in
(1025 mb)
Calm - 10SM
06:21
Overcast
61°F / 16°C 55°F / 13°C 83% 30.27 in
(1025 mb)
Calm - 10SM
06:06
Overcast
61°F / 16°C 55°F / 13°C 83% 30.27 in
(1025 mb)
Calm - 10SM
05:53
Overcast
61°F / 16°C 55°F / 13°C 83% 30.27 in
(1025 mb)
E 3.5 mph
(E 6 kph)
- 10SM
04:53
Overcast
59°F / 15°C 55°F / 13°C 88% 30.24 in
(1024 mb)
Calm - 10SM
03:53
Overcast
61°F / 16°C 55°F / 13°C 83% 30.24 in
(1024 mb)
Calm - 10SM
02:53
Overcast
61°F / 16°C 55°F / 13°C 83% 30.27 in
(1025 mb)
Calm - 10SM
01:53
Partly Cloudy
59°F / 15°C 54°F / 12°C 82% 30.27 in
(1025 mb)
Calm - 10SM
00:53
Clear
61°F / 16°C 54°F / 12°C 77% 30.27 in
(1025 mb)
Variable 4.6 mph
(Variable 7 kph)
- 10SM
Time Weather Temperature Dewpoint Humidity Pressure Winds Precip Visibility


Weather for websites

WeatherForYou.com, LLC is not responsible for any damages or problems caused by this service. Current weather conditions are obtained from the closest station including government and personal stations which may have varying degrees of accuracy. Weather forecasts are derived from the NOAA NDFD. Like all things, this site belongs to Jesus Christ... He just trusts us to maintain it. If you have any questions or comments email webmaster@weatherforyou.com

Copyright © 2016, WeatherForYou.com LLC. All rights reserved.